Home > Time Zones > World Clock > Weather > Mali > Bamako > Past weeks

Flag for Mali Weather past 2 weeks in Bamako, Mali

Now
84 °F

Clear.


Feels Like: 84 °F
Forecast: 75 / 104 °F
Wind: 7 mph from Southwest

Location: Bamako / Senou

Current Time: Apr 25, 2015 at 5:20:59 AM

Latest Report: Apr 25, 2015 at 5:00 AM


Visibility: 10 mi

Pressure: 29.89 "Hg

Humidity: 45%

Dew point: 61 °F

Location of BamakoLocation

Historic Weather in Bamako — Graph

°F

Bamako temperature yesterday

Maximum temperature yesterday: 106 °F (at 2:30 PM)
Minimum temperature yesterday: 79 °F (at 7:00 AM)
Average temperature yesterday: 93 °F

Past Weeks' High & Low Weather Summary

 TemperatureHumidityPressure
High106 °F (Apr 10, 1:30 PM)84% (Apr 21, 2:30 AM)30.01 "Hg (Apr 21, 2:30 AM)
Low72 °F (Apr 15, 6:00 AM)4% (Apr 11, 12:00 PM)29.77 "Hg (Apr 19, 4:00 PM)
Average91 °F20%29.89 "Hg
* Reported Apr 10 4:00 AM — Apr 25 4:30 AM, Bamako, Weather by CustomWeather, © 2015

Note: Actual official high and low records may vary slightly from our data, if they occured in-between our weather recording intervals... More about our weather records

Advertising

Bamako weather history for previous 24 hours

 ConditionsComfort  
Time TempWeatherWind HumidityBarometerVisibility
4:30 AM
Sat, Apr 25
86 °FClear.9 mph43%29.89 "Hg10 mi
4:00 AM86 °FClear.8 mph43%29.89 "Hg10 mi
3:30 AM86 °FClear.9 mph40%29.89 "Hg10 mi
3:00 AM86 °FClear.9 mph35%29.89 "Hg10 mi
2:30 AM86 °FClear.7 mph31%29.89 "Hg10 mi
2:00 AM90 °FClear.8 mph26%29.89 "Hg10 mi
1:30 AM88 °FClear.7 mph18%29.89 "Hg10 mi
1:00 AM88 °FClear.7 mph17%29.89 "Hg10 mi
12:30 AM88 °FClear.8 mph18%29.89 "Hg10 mi
12:00 AM88 °FClear.5 mph25%29.89 "Hg10 mi
11:30 PM
Fri, Apr 24
86 °FClear.1 mph20%29.89 "Hg10 mi
11:00 PM86 °FClear.1 mph19%29.89 "Hg10 mi
10:30 PM90 °FClear.3 mph16%29.89 "Hg10 mi
10:00 PM90 °FClear.6 mph18%29.89 "Hg10 mi
9:30 PM91 °FClear.7 mph15%29.86 "Hg10 mi
9:00 PM91 °FClear.8 mph15%29.86 "Hg10 mi
8:30 PM95 °FClear.5 mph14%29.83 "Hg10 mi
8:00 PM95 °FClear.5 mph14%29.83 "Hg10 mi
7:30 PM99 °FClear.5 mph13%29.83 "Hg10 mi
7:00 PM99 °FClear.3 mph13%29.80 "Hg10 mi
6:30 PM100 °FScattered clouds.1 mph14%29.80 "HgN/A
6:00 PM102 °FPassing clouds.No wind21%29.77 "HgN/A
5:30 PM106 °FScattered clouds.1 mph10%29.77 "HgN/A
5:00 PM104 °FScattered clouds.2 mph12%29.77 "HgN/A
4:30 PM104 °FScattered clouds.10 mph12%29.80 "HgN/A
4:00 PM104 °FScattered clouds.5 mph13%29.80 "HgN/A
3:30 PM106 °FScattered clouds.8 mph13%29.80 "HgN/A
3:00 PM106 °FScattered clouds.6 mph9%29.80 "HgN/A
2:30 PM106 °FScattered clouds.5 mph10%29.83 "HgN/A
2:00 PM104 °FPassing clouds.9 mph14%29.83 "HgN/A
1:30 PM104 °FSunny.6 mph15%29.86 "Hg10 mi
12:30 PM102 °FSunny.5 mph16%29.89 "Hg10 mi
12:00 PM100 °FPassing clouds.6 mph20%29.89 "HgN/A
11:30 AM100 °FSunny.3 mph21%29.92 "Hg10 mi
11:00 AM99 °FSunny.3 mph24%29.92 "Hg10 mi
10:30 AM97 °FSunny.3 mph27%29.92 "Hg10 mi
10:00 AM95 °FPassing clouds.7 mph28%29.92 "HgN/A
9:30 AM91 °FClear.7 mph34%29.92 "Hg5 mi
9:00 AM90 °FClear.8 mph36%29.92 "Hg5 mi
8:30 AM88 °FClear.7 mph40%29.92 "Hg5 mi
8:00 AM84 °FClear.2 mph45%29.92 "Hg5 mi
7:30 AM81 °FClear.2 mph54%29.92 "Hg5 mi
7:00 AM79 °FClear.2 mph54%29.89 "Hg5 mi
6:30 AM81 °FClear.3 mph51%29.89 "Hg5 mi
6:00 AM82 °FClear.5 mph55%29.86 "Hg10 mi
5:30 AM86 °FClear.7 mph38%29.86 "Hg5 mi
5:00 AM86 °FClear.7 mph35%29.86 "Hg5 mi
Weather by CustomWeather, © 2015

See weather overviewHow to use our weather pages